PEGASUS DEB, 40242

Orbit data source: Space-Track

PEGASUS DEB, 40242 is space debris in LEO originally from a launch on Thu, 19 May 1994 UTC launched from the Air Force Western Test Range (AFWTR). Debris objects in space refer to the collection of defunct objects orbiting the Earth. Examples of debris include non-operational satellites, rocket bodies, and fragments generated from explosions, collisions, or faulty payload assembly.

Loading next visibility...
Identifier
40242, 1994-029AGJ
Orbit
LEO
Country
Flag of USUS
Related business
Manufacturer
Unknown
Mission
Spacecraft
Bus & Motor
Unknown
Mass
Unknown
Launch date (UTC)
1994-05-19 (32 years ago)
Launch vehicle
Unknown
Launch site
Air Force Western Test Range (AFWTR)
Object type
Payload
Rocket body
Debris
Shape & HBR
Unknown shape, 0.1 m
Radar Cross Section
Small (<0.1 m²)

Expand to show TLE details & history
Last TLE update: 3 days ago

TLE from 3 days ago
0 PEGASUS DEB
1 40242U 94029AGJ 26061.24860637  .00004218  00000-0  86628-3 0  9995
2 40242  81.8733  46.0052 0321424 182.9119 177.0211 14.32678530587253
Epoch: 2026-03-02T05:57Z
TLE epoch observation values (Epoch: 2026-03-02T05:57:59.590Z)
Latitude
0.00004°
Longitude
156.46217°
Altitude
1,015.669 km
Speed
7.225 km/s
True Right ascension
03h 04m 01s
True Declination
0° 00' 00"
Sunlit
Object was in daylight at epoch
Visualization orbit readout
Latitude
Unknown
Longitude
Unknown
Altitude
Unknown
Speed
Unknown
Apparent Right ascension
Unknown
Apparent Declination
Unknown
Sunlit
N/A
Visualization observer readout
Local Sidereal Time
22:47:09
Azimuth
Unknown
Elevation
Unknown
Doppler factor
Unknown
Orbital elements
Apogee altitude
1,009.978 km
Perigee altitude
549.825 km
Semi-major axis
7,158.039 km
Eccentricity
0.03214
Inclination
81.8733°
RAAN
46.0052°
Arg. of periapsis
182.9119°
True anomaly
177.20512°
Mean anomaly
177.0211°
Eccentric anomaly
177.11383°
Mean motion
3.58387 °/min
Orbital period
100.45 mins
BSTAR
0.00086628
Loading maneuver chart data...
Computing Atmospheric mass density...

Documentation

Showing up to 5 results
|